Simultaneous Nadir Overpasses (SNOs) Predictions

Prediction of SNOs near equator between AQUA and NPP Satellite Orbit:

Table of predicted SNOs near equator for the next 14.0 days since TLE Epoch: 3/26/2022
Index Date (AQUA) Time (AQUA) AQUA Lat,Lon Date (NPP) Time (NPP) NPP Lat,Lon Distance(km) Time Diff (sec)
1 03/27/2022 07:01:41 5.38, 98.10 03/27/2022 06:51:55 5.25, 97.53 65.51 586
2 03/27/2022 07:49:47 -0.80, -93.26 03/27/2022 07:41:17 -0.63, -94.11 96.21 510
3 03/29/2022 23:17:24 3.25,-145.51 03/29/2022 23:08:13 3.09,-146.22 81.00 551
4 04/01/2022 14:44:50 -5.63, 162.30 04/01/2022 14:35:00 -5.53, 161.71 66.12 590
5 04/01/2022 15:33:06 1.10, -29.11 04/01/2022 15:24:31 0.93, -29.96 96.58 515
6 04/04/2022 07:00:31 -3.50, -81.30 04/04/2022 06:51:16 -3.32, -82.02 81.83 555
7 04/06/2022 22:28:05 5.85,-133.53 04/06/2022 22:18:11 5.74,-134.12 66.92 594
8 04/06/2022 23:16:11 -1.27, 35.11 04/06/2022 23:07:33 -1.11, 34.25 97.68 518
